Regional Weather Roundup
Issued by NWS Memphis, TN

Home | Current Version | Previous Version | Text Only | Print | Product List | Glossary On
Versions: 1 2 3 4 5 6 7 8 9 10 11 12 13 14 15 16 17 18 19 20 21 22 23 24 25 26 27 28 29 30 31 32 33 34 35 36 37 38 39 40 41 42 43 44 45 46 47 48 49 50
000
ASUS44 KMEG 290510
RWRMEG
MEMPHIS CWA HOURLY WEATHER ROUNDUP
NATIONAL WEATHER SERVICE MEMPHIS TN
1200 AM CDT WED MAR 29 2017

...WEST TENNESSEE...

CITY           SKY/WX    TMP DP  RH WIND       PRES   REMARKS
MEMPHIS INTL   PTCLDY    65  55  70 E12       29.96F
NWS MEMPHIS      N/A     63 N/A N/A MISG        N/A
JACKSON        CLEAR     59  53  80 E8        30.01S
SOMERVILLE     CLEAR     63  54  72 VRB3      29.97F
BOLIVAR        PTCLDY    61  54  77 NE7       29.99S
SAVANNAH       MOCLDY    61  54  77 NE3       29.99S
PARIS          CLEAR     52  52 100 NE7       30.04F
HUNTINGDON     CLEAR     55  54  94 NE7       30.03S


...EASTERN ARKANSAS...

CITY           SKY/WX    TMP DP  RH WIND       PRES   REMARKS
JONESBORO      CLEAR     56  53  90 NE14      29.99F
WEST MEMPHIS   CLEAR     63  56  78 E12       29.95F
BATESVILLE     CLOUDY    59  52  77 E10       29.99F
NEWPORT        MOCLDY    58  55  90 NE14      29.99S
WALNUT RIDGE   PTCLDY    57  48  72 NE17G23   30.01S
BLYTHEVILLE    CLEAR     57  55  93 NE9       30.01
SEARCY         MOCLDY    61  56  83 NE18      29.98R
STUTTGART      PTCLDY    64  52  63 NE16      29.93S
PINE BLUFF     MOCLDY    67  60  78 E8        29.90F
MONTICELLO     PTCLDY    66  63  90 CALM      29.88F


...NORTH MISSISSIPPI...

CITY           SKY/WX    TMP DP  RH WIND       PRES   REMARKS
TUPELO         MOCLDY    68  55  63 NE5       29.97S
OXFORD         CLEAR     66  54  63 E6        29.97F
BATESVILLE     CLEAR     66  58  74 NE3       29.96S
TUNICA         CLEAR     63  55  77 NE8       29.95S
CORINTH        CLEAR     63  54  72 NE5       29.98S
GREENWOOD      CLEAR     69  64  84 CALM      29.91S
COLUMBUS       CLEAR     69  60  75 E9        29.94F
STARKVILLE     CLEAR     68  63  83 E3        29.96S
GOLDEN TRIANGL CLEAR    N/A N/A N/A E7        29.90F


...SOUTHEAST MISSOURI...

CITY           SKY/WX    TMP DP  RH WIND       PRES   REMARKS
KENNETT        MOCLDY    55  54  94 NE12      30.01S
MALDEN         CLEAR     55  50  82 NE7       30.05S
WEST PLAINS    PTCLDY    55  49  80 E13       30.01F
POPLAR BLUFF   CLEAR     55  51  86 NE10      30.03F
CAPE GIRARDEAU CLOUDY    54  49  83 NE6       30.05F


...NORTHWEST ALABAMA...

CITY           SKY/WX    TMP DP  RH WIND       PRES   REMARKS
MUSCLE SHOALS  CLEAR     63  55  75 E8        30.00F


...MIDDLE TENNESSEE...

CITY           SKY/WX    TMP DP  RH WIND       PRES   REMARKS
NASHVILLE      CLEAR     57  53  86 NE5       30.06S
CLARKSVILLE    FOG       52  50  93 CALM      30.05F VSB 1/4
COLUMBIA       CLEAR     55  55 100 CALM      30.02F


...WESTERN KENTUCKY...

CITY           SKY/WX    TMP DP  RH WIND       PRES   REMARKS
PADUCAH        PTCLDY    54  49  83 NE5       30.06R
FORT CAMPBELL  CLEAR     52  52 100 CALM      30.05F FOG


...CENTRAL ARKANSAS...

CITY           SKY/WX    TMP DP  RH WIND       PRES   REMARKS
LITTLE ROCK    CLOUDY    64  58  80 E14       29.92S


SKY/WX REPORTED AS FAIR MEANS FEW OR NO CLOUDS BELOW
12 THOUSAND FEET.




USA.gov is the U.S. government's official web portal to all federal, state and local government web resources and services.